Regional Weather Roundup
Issued by NWS Austin/San Antonio, TX

Current Version | Previous Version | Text Only | Print | Product List | Glossary On
Versions: 1 2 3 4 5 6 7 8 9 10 11 12 13 14 15 16 17 18 19 20 21 22 23 24 25 26 27 28 29 30 31 32 33 34 35 36 37 38 39 40 41 42 43 44 45 46 47 48 49 50
000
ASUS44 KEWX 020510
RWREWX
SOUTH TEXAS REGIONAL WEATHER ROUNDUP
NATIONAL WEATHER SERVICE AUSTIN/SAN ANTONIO TX
1100 PM CST FRI MAR 01 2024

NOTE: "FAIR" INDICATED FEW OR NO CLOUDS BELOW 12,000 FEET WITH NO
SIGNIFICANT WEATHER AND/OR OBSTRUCTIONS TO VISIBILITY.

* - THESE STATIONS ARE NOT NWS OR FAA STATIONS...AND ARE NOT SUBJECT
    TO NWS AND FAA QUALITY CONTROL.

TXZ171-172-183>190-020600-
TEXAS HILL COUNTRY AND EDWARDS PLATEAU

CITY           SKY/WX    TMP DP  RH WIND       PRES   REMARKS
JUNCTION       CLEAR     57  37  47 CALM      30.06S
*LLANO         MOCLDY    54  48  82 CALM      30.05S
BURNET         CLEAR     54  47  77 CALM      30.07S
*HORSESHOE BAY CLEAR     56  47  69 CALM      30.06S
*LAGO VISTA    NOT AVBL
*KERRVILLE     CLEAR     53  43  69 S5        30.08F
*FREDERICKSBRG CLEAR     50  42  73 CALM      30.08S
*ROCKSPRINGS   CLEAR     55  32  41 SE7       30.13S
*BOERNE        CLEAR     48  43  81 S3        30.08F
*CASTROVILLE   CLEAR     57  44  61 CALM      30.10S HAZE
HONDO          CLEAR     49  39  68 E5        30.08R WCI  47
*UVALDE        CLEAR     53  40  62 NE5       30.09S
DEL RIO        CLEAR     63  33  32 E7        30.04S
*LAUGHLIN AFB  NOT AVBL
*SPOFFORD      NOT AVBL
CARRIZO SPRGS  CLEAR     59  45  58 S7        30.06S
*FAITH RANCH   CLEAR     63  46  55 MISG      30.08S
$$

TXZ173-191>194-202-209-217>225-228-020600-
CENTRAL AND SOUTH CENTRAL TEXAS

CITY           SKY/WX    TMP DP  RH WIND       PRES   REMARKS
GEORGETOWN     CLEAR     51  46  83 SW3       30.08R
*TAYLOR        CLEAR     55  52  88 S7        30.06S
AUSTIN/BERGSTM PTCLDY    45  44  97 CALM      30.06S
AUSTIN/MABRY   CLEAR     57  51  80 SW5       30.07S
*PFLUGERVILLE  CLEAR     54  54 100 S5        30.05S FOG
SAN MARCOS     CLEAR     50  46  86 CALM      30.09R
NEW BRAUNFELS  CLEAR     52  47  83 SW6       30.06S
*RANDOLPH AFB  NOT AVBL
*SEGUIN        NOT AVBL
SAN ANTONIO    PTCLDY    57  49  74 S8        30.08S
STINSON FIELD  CLEAR     56  50  80 S6        30.06S
*KELLY FIELD   NOT AVBL
*PLEASANTON    CLEAR     57  52  84 CALM      30.10S
*KENEDY        CLEAR     55  51  86 CALM      30.10S
*LA GRANGE     CLEAR     56  56 100 S7        30.07R
*GIDDINGS      CLEAR     55  53  90 CALM      30.08R
*GONZALES      CLEAR     57  53  88 S3        30.08R
$$

TXZ163>164-176>182-195>201-210>213-226-227-235-020600-
SOUTHEAST TEXAS

CITY           SKY/WX    TMP DP  RH WIND       PRES   REMARKS
COLLEGE STN    CLEAR     54  48  80 CALM      30.06S
*BRYAN         CLEAR     56  51  85 S5        30.08S
*CALDWELL      CLEAR     52  51  93 S6        30.07S FOG
*CROCKETT      CLEAR     46  46 100 CALM      30.07S
*BRENHAM       CLEAR     57  52  84 S5        30.08R
HUNTSVILLE     CLEAR     58  51  78 S3        30.06S
CONROE         CLEAR     51  49  92 CALM      30.08S
HOUSTON BUSH   CLEAR     60  52  74 S5        30.07F
HOUSTON HOBBY  PTCLDY    58  52  80 S5        30.07F
*HOUSTON SW AP MOCLDY    57  54  88 CALM      30.09S
PEARLAND       MOCLDY    59  54  83 S3        30.09F
HOUSTON HOOKS  CLEAR     59  52  77 SW3       30.07S
ELLINGTON FLD  NOT AVBL
SUGAR LAND     CLEAR     56  53  90 S6        30.07F
*HOUSTON EXEC    N/A     57  54  88 SW3       30.09S
*CLEVELAND MUN CLEAR     55  53  93 CALM      30.08S
*WHARTON       CLEAR    N/A N/A N/A S5        30.09F
*COLUMBUS      CLEAR     55  51  86 CALM      30.09S
*EAGLE LAKE    CLEAR     56  51  82 MISG      30.07F
$$

TXZ214>216-236>238-020600-
THE UPPER TEXAS COAST

CITY           SKY/WX    TMP DP  RH WIND       PRES   REMARKS
*ORANGE        CLOUDY    63  57  83 S3        30.10F
PORT ARTHUR    CLOUDY    59  55  87 S3        30.07F
GALVESTON      PTCLDY    58  55  90 W3        30.10S
ANGLETON       PTCLDY    53  53 100 SE3       30.08F
*BAY CITY      PTCLDY    51  47  88 SE5       30.08F
PALACIOS       CLOUDY    58  57  97 CALM      30.08F
$$

TXZ229>234-239>247-020600-
TEXAS COASTAL BEND AND RIO GRANDE PLAINS

CITY           SKY/WX    TMP DP  RH WIND       PRES   REMARKS
VICTORIA         N/A     53  49  86 MISG      30.09F
*BEEVILLE      CLEAR     51  48  92 CALM      30.08F
ROCKPORT       CLEAR     53  52  96 CALM      30.08S
*PORT ARANSAS  CLEAR     58  54  86 CALM      30.09F
*PORT LAVACA   CLEAR     55  51  86 CALM      30.10S
*INGLESIDE     NOT AVBL
CORPUS CHRISTI PTCLDY    55  51  86 S6        30.08S
CORPUS NAS     CLEAR     60  55  83 S3        30.07F
*ROBSTOWN      CLEAR     55  51  86 S5        30.08F
ALICE          CLEAR     54  50  86 CALM      30.07F
KINGSVILLE NAS CLEAR     56  53  90 S6        30.07F
COTULLA        CLEAR     61  52  72 S6        30.07S
LAREDO         CLEAR     60  53  77 SE9       30.09S
$$

TXZ248>255-020600-
DEEP SOUTH TEXAS

CITY           SKY/WX    TMP DP  RH WIND       PRES   REMARKS
BROWNSVILLE    CLOUDY    62  55  77 CALM      30.09F
PORT ISABEL    CLOUDY    61  56  83 CALM      30.09F
HARLINGEN      MOCLDY    58  52  80 S5        30.09F
*HEBBRONVILLE  CLEAR     51  50  95 CALM      30.11R FOG
MCALLEN        CLEAR     57  53  86 S3        30.10F
*WESLACO       CLOUDY    58  52  80 SW3       30.10F
FALFURRIAS     MOCLDY    57  55  93 S5        30.07F
EDINBURG       CLEAR     54  52  94 CALM      30.09F
*ZAPATA        CLEAR     56  53  88 CALM      30.11R
$$

TXZ213>215-236>238-242>244-246-247-251-254-255-020600-
CMAN STATIONS

STATION/POSITION TIME  TEMP    WIND        PRES    WAVE
                       AIR SEA DIR/SP/G            HT/PER
                 (UTC) (F)     (DEG/KT/KT) (MB)    (FT/S)
SEA RIM ST PARK  0400   60     140/  4/  6 1018.9
NORTH JETTY/GLS  0430   61 60  200/  3/  3 1017.6
EAGLE POINT      0430   63 62  270/  4/  5 1018.4
MORGANS POINT    0430   59 63  150/  5/  7 1018.0
PORT O`CONNOR    0430   58 61  120/  3/  5 1018.5
PORT ARANSAS     0400   58     200/  2/  2   N/A
BAFFIN BAY       0430   58 64   CALM  /  1 1018.3
PORT ISABEL      0430   61 65  330/  3/  5 1018.5
$$



USA.gov is the U.S. government's official web portal to all federal, state and local government web resources and services.